Location: Maddington
(51.2000°N, 1.9167°W)
Time: 15:20:03
(UTC+00:00)

Cosmos 1125 Rocket - Pass Details

Date: 27 June 2021
Orbit: 757 x 780 km, 74.0° (Epoch: 25 July)

Event Time Altitude Azimuth Distance (km) Brightness Sun altitude
Rises 01:50:09 0° 330° (NNW) 3,252 7.3 -12.3°
Reaches altitude 10° 01:52:39 10° 323° (NW) 2,324 6.4 -12.2°
Maximum altitude 01:57:31 39° 256° (WSW) 1,147 4.1 -11.9°
Enters shadow 02:01:25 15° 193° (SSW) 1,984 5.0 -11.6°
